Flag for Netherlands Weather past 2 weeks in Oss, Netherlands

Now
54 °F

Passing clouds.


Feels Like: 49 °F
Forecast: 44 / 52 °F
Wind: 14 mph from Southwest

Location: Volkel

Current Time: Oct 21, 2014 at 2:40:29 AM

Latest Report: Oct 21, 2014 at 1:55 AM


Visibility: N/A

Pressure: 29.89 "Hg

Humidity: 88%

Dew point: 50 °F

Location of OssLocation

Historic Weather in Oss — Graph

°F

Oss temperature yesterday

Maximum temperature yesterday: 63 °F (at 12:25 PM)
Minimum temperature yesterday: 50 °F (at 10:25 PM)
Average temperature yesterday: 58 °F

Past Weeks' High & Low Weather Summary

 TemperatureHumidityPressure
High73 °F (Oct 18, 2:55 PM)100% (Oct 6, 1:25 AM)30.04 "Hg (Oct 6, 1:25 AM)
Low41 °F (Oct 12, 7:25 AM)64% (Oct 7, 1:55 PM)29.47 "Hg (Oct 7, 8:25 AM)
Average57 °F88%29.79 "Hg
* Reported Oct 6 1:25 AM — Oct 21 1:25 AM, Oss, Weather by CustomWeather, © 2014

Note: Actual official high and low records may vary slightly from our data, if they occured in-between our weather recording intervals... More about our weather records

Advertising

Oss weather history for previous 24 hours

 ConditionsComfort  
Time TempWeatherWind HumidityBarometerVisibility
1:25 AM
Oct 21
55 °FOvercast.14 mph88%29.89 "HgN/A
12:55 AM54 °FPassing clouds.12 mph94%29.89 "HgN/A
12:25 AM54 °FCool.12 mph94%29.89 "HgN/A
11:55 PM
Oct 20
54 °FPassing clouds.9 mph94%29.92 "HgN/A
11:25 PM50 °FPassing clouds.8 mph94%29.92 "HgN/A
10:55 PM52 °FCool.7 mph88%29.92 "HgN/A
10:25 PM50 °FCool.7 mph94%29.92 "HgN/A
9:55 PM54 °FOvercast.7 mph88%29.95 "HgN/A
9:25 PM54 °FPassing clouds.7 mph88%29.95 "HgN/A
8:55 PM52 °FPassing clouds.6 mph94%29.95 "HgN/A
8:25 PM54 °FPassing clouds.7 mph82%29.95 "HgN/A
7:55 PM57 °FOvercast.9 mph77%29.95 "HgN/A
7:25 PM57 °FBroken clouds.7 mph77%29.95 "HgN/A
6:55 PM57 °FOvercast.3 mph77%29.95 "HgN/A
6:25 PM59 °FScattered clouds.7 mph72%29.95 "HgN/A
5:55 PM61 °FScattered clouds.9 mph68%29.95 "HgN/A
5:25 PM61 °FPartly sunny.10 mph68%29.95 "HgN/A
4:55 PM61 °FPartly sunny.10 mph68%29.98 "HgN/A
4:25 PM61 °FPassing clouds.12 mph68%29.98 "HgN/A
3:55 PM61 °FCool.12 mph72%29.98 "HgN/A
3:25 PM63 °FBroken clouds.16 mph68%29.98 "HgN/A
2:55 PM61 °FPassing clouds.14 mph72%29.98 "HgN/A
2:25 PM61 °FPartly sunny.16 mph72%30.01 "HgN/A
1:59 PM61 °FBroken clouds.17 mph72%30.01 "HgN/A
1:55 PM63 °FBroken clouds.15 mph73%30.01 "HgN/A
1:25 PM61 °FBroken clouds.17 mph77%30.01 "HgN/A
12:55 PM63 °FBroken clouds.16 mph73%30.01 "HgN/A
12:25 PM63 °FBroken clouds.16 mph77%30.01 "HgN/A
11:58 AM61 °FPartly sunny.15 mph77%30.01 "HgN/A
11:25 AM59 °FBroken clouds.15 mph82%30.01 "HgN/A
10:55 AM59 °FPartly sunny.14 mph82%30.01 "HgN/A
10:25 AM57 °FPartly sunny.15 mph88%30.01 "HgN/A
9:55 AM57 °FMore clouds than sun.14 mph88%30.01 "HgN/A
9:25 AM57 °FMore clouds than sun.13 mph88%30.01 "HgN/A
9:03 AM57 °FPartly cloudy.13 mph88%30.01 "HgN/A
8:25 AM57 °FMostly cloudy.14 mph88%29.98 "HgN/A
7:58 AM57 °FMostly cloudy.14 mph88%29.98 "HgN/A
7:25 AM55 °FPassing clouds.12 mph94%29.98 "HgN/A
6:55 AM57 °FPassing clouds.14 mph88%29.98 "HgN/A
5:25 AM57 °FPassing clouds.14 mph88%29.98 "HgN/A
4:55 AM57 °FPassing clouds.13 mph88%29.98 "HgN/A
4:25 AM57 °FPassing clouds.13 mph88%29.98 "HgN/A
3:55 AM57 °FPassing clouds.14 mph88%29.98 "HgN/A
3:25 AM57 °FPassing clouds.14 mph88%29.98 "HgN/A
2:55 AM59 °FPassing clouds.16 mph82%30.01 "HgN/A
2:25 AM59 °FOvercast.12 mph82%30.01 "HgN/A
Weather by CustomWeather, © 2014

See weather overviewHow to use our weather pages